Temperature
17 17 17 17 17 17 17 17 17 16 15 15 15 14 14 14 14 14 14 14 14 14 13 13 13 13 13 13 13 13 13 13 12 12 12 12 12 12
17 17 17 17 17 17 17 17 17 17 16 15 15 15 14 14 14 14 13 13 13 13 13 13 13 13 13 13 13 12 12 12 12 12 12 12 12 12
17 17 17 17 17 17 17 17 16 16 16 15 15 14 14 14 14 13 13 13 13 13 13 13 13 12 12 12 12 12 12 12 12 11 11 11 11 11
17 17 17 17 17 17 17 16 16 16 16 15 15 14 14 14 13 13 13 13 13 13 13 13 12 12 12 12 12 12 11 11 11 11 11 11 11 11
17 17 17 17 17 17 17 16 16 16 16 15 15 14 14 13 13 13 12 12 12 12 12 12 12 12 12 12 11 11 11 11 11 11 10 10 10 10
17 17 17 17 17 17 16 16 16 16 15 15 15 14 14 13 13 13 12 12 12 12 12 12 12 12 11 11 11 11 11 11 10 10 10 10 10 10
17 17 17 17 16 16 16 16 16 16 15 15 14 14 13 13 13 13 12 12 12 12 12 12 11 11 11 11 11 11 11 10 10 10 10 10 9 9
17 17 16 16 16 16 16 16 16 15 15 15 14 14 14 13 13 13 12 12 12 11 11 11 11 11 11 11 11 11 10 10 10 10 9 9 9 9
16 16 16 16 16 15 15 15 15 15 15 15 14 14 14 13 13 13 12 12 12 12 11 11 11 11 11 11 11 10 10 10 10 9 9 9 9 9
16 16 16 16 15 15 15 15 15 15 14 14 14 14 13 13 13 13 12 12 12 11 11 11 11 11 10 10 10 10 10 10 10 9 9 9 9 8
16 16 16 15 15 15 15 15 15 14 14 14 14 14 13 13 13 12 12 11 11 11 11 11 11 10 10 10 10 10 10 10 9 9 9 9 9 8
16 16 15 15 15 15 15 14 14 14 14 13 13 13 13 13 12 12 12 11 11 11 11 11 11 10 10 10 10 10 10 10 9 9 9 9 8 8
16 15 15 15 15 15 14 14 14 14 13 13 13 13 13 12 12 12 12 11 11 11 11 11 11 10 10 10 10 10 10 10 9 9 9 9 8 8
15 15 15 15 15 14 14 14 14 13 13 13 13 12 12 12 12 12 12 11 11 11 11 11 11 10 10 10 10 10 10 9 9 9 9 9 8 8
15 15 14 14 14 14 14 14 13 13 13 13 12 12 12 12 12 12 11 11 11 11 11 11 11 10 10 10 10 10 9 9 9 9 9 9 8 8
15 14 14 14 14 14 13 13 13 13 13 13 12 12 12 12 11 11 11 11 11 11 11 11 10 10 10 10 10 9 9 9 9 9 9 8 8 8
15 14 14 14 13 13 13 13 13 13 12 12 12 12 12 11 11 11 11 11 10 10 10 10 10 10 10 9 9 9 9 9 9 9 8 8 8 8
14 14 13 13 13 13 13 13 12 12 12 12 12 12 11 11 11 11 11 10 10 10 10 10 10 9 9 9 9 9 9 9 9 9 8 8 8 8
13 13 13 13 13 13 12 12 12 12 12 12 12 11 11 11 11 11 11 10 10 10 10 10 9 9 9 9 9 9 9 9 8 8 8 8 8 8
13 13 13 13 12 12 12 12 12 12 12 12 12 11 11 11 11 11 11 10 10 10 10 9 9 9 9 9 9 9 9 9 9 8 8 8 8 7
13 13 13 12 12 12 12 12 12 12 12 12 11 11 11 11 11 11 11 10 10 10 10 9 9 9 9 9 9 9 9 8 8 8 8 8 7 7
13 13 13 12 12 12 12 12 12 12 12 11 11 11 11 11 11 11 10 10 10 10 10 9 9 9 9 9 9 8 8 8 8 8 8 8 7 7
12 12 12 13 12 12 12 12 12 11 11 11 11 11 11 11 10 10 10 10 10 10 10 9 9 9 9 9 9 8 8 8 8 8 8 8 7 7
Wind_Speed
2 2 2 2 1 2 2 3 3 2 2 2 2 3 6 8 8 8 8 9 8 8 7 7 7 7 6 7 7 6 5 5 5 6 6 6 6 5
2 1 1 2 1 2 2 2 2 2 2 2 2 4 4 6 8 8 10 10 9 8 7 8 7 7 7 7 7 8 8 8 8 7 7 7 6 5
2 1 1 1 1 1 1 1 2 3 4 3 3 4 4 4 6 7 8 8 7 8 8 8 8 8 8 8 8 8 8 8 8 8 8 7 6 5
2 1 1 2 1 1 0 1 2 3 4 5 4 4 3 4 5 4 5 6 7 8 8 8 8 7 7 7 8 8 8 8 8 8 8 8 7 6
2 2 2 1 1 1 1 1 2 3 4 5 5 3 3 4 4 3 4 4 6 8 8 7 7 7 7 7 7 7 8 8 8 8 8 8 8 7
1 1 1 1 1 1 1 2 3 3 4 4 5 4 3 4 4 3 3 2 2 5 6 7 7 7 6 6 6 7 7 7 8 8 7 7 7 6
2 2 2 3 3 1 1 2 3 3 3 4 4 4 3 4 4 3 4 3 2 3 3 4 5 5 5 5 5 6 7 7 7 7 6 6 6 6
2 2 3 3 4 4 4 4 3 3 3 3 3 4 4 4 3 3 3 3 2 3 3 3 5 4 5 5 7 8 8 7 7 7 6 6 6 6
3 2 2 2 4 4 4 5 4 3 3 3 3 3 4 5 4 4 3 3 2 3 3 2 3 3 4 6 10 10 9 8 8 7 7 7 6 6
3 3 3 3 3 3 3 4 4 3 4 4 2 2 2 3 4 4 3 3 2 2 3 2 2 3 4 7 11 12 11 10 9 8 8 8 8 7
3 3 4 4 5 5 4 4 3 3 4 5 6 5 5 5 5 3 3 3 2 2 3 2 2 2 3 3 10 13 13 12 11 10 9 9 9 9
4 4 4 5 6 6 4 4 4 3 3 4 4 5 6 6 7 4 3 3 2 2 3 3 2 2 2 2 5 9 11 12 13 12 11 10 9 7
4 4 4 7 8 7 5 3 4 4 4 4 5 5 5 5 6 6 5 3 2 1 2 3 2 2 2 2 2 5 7 7 9 10 12 12 11 9
3 3 4 8 7 6 5 4 5 4 4 4 4 4 4 4 4 5 6 4 3 2 1 2 2 2 2 2 2 3 4 6 7 7 9 11 11 12
2 3 5 8 7 6 7 7 6 5 5 4 3 3 3 4 4 4 5 5 3 4 3 4 3 2 2 2 2 2 2 3 4 4 5 6 6 6
3 3 5 7 6 5 5 6 5 5 4 4 3 3 3 3 4 4 4 4 4 3 3 4 4 2 2 3 2 2 2 2 3 3 4 4 5 7
5 4 4 4 5 5 5 5 5 5 5 4 4 4 4 4 4 4 3 3 4 3 3 2 4 4 3 2 2 2 2 2 2 3 3 3 3 4
5 5 5 5 6 6 6 5 5 5 5 4 4 4 4 4 4 4 4 4 4 4 3 3 3 2 2 3 4 4 3 3 2 2 3 3 4 3
5 5 5 5 5 5 5 5 5 5 4 5 5 4 4 4 4 4 4 4 4 4 4 4 4 4 4 4 4 5 4 3 2 2 3 3 3 3
5 6 5 5 4 5 4 4 3 3 4 5 5 4 4 4 4 4 4 5 4 4 4 4 4 5 5 4 3 3 7 4 3 3 2 2 1 2
6 6 5 5 5 4 3 3 3 4 4 5 5 5 4 4 4 4 4 5 5 4 5 4 5 6 3 2 2 2 3 7 6 3 3 2 2 3
6 6 5 5 4 4 3 3 4 4 4 4 4 4 4 4 5 5 4 4 4 5 4 3 4 4 3 4 4 4 3 4 6 8 8 6 3 3
5 4 4 4 4 4 3 4 5 4 4 4 4 4 4 4 4 3 4 4 3 4 4 3 3 3 3 4 4 3 4 4 3 3 5 10 13 11
Wind_Direction
250 240 240 257 246 224 184 174 180 183 171 145 124 107 108 107 117 118 111 108 108 102 96 89 80 73 72 76 80 81 89 106 110 103 102 106 107 103
220 246 252 265 250 246 211 191 194 181 153 135 123 122 111 122 123 120 118 114 108 106 100 94 87 82 81 85 87 85 89 93 96 99 100 98 97 99
232 221 215 261 288 282 223 169 156 140 139 129 118 121 116 115 126 128 132 128 118 117 113 105 100 95 91 88 88 89 94 99 100 100 98 95 94 97
231 222 237 233 207 267 233 143 130 133 144 142 140 141 145 145 140 146 137 136 129 130 128 120 114 107 102 99 100 100 101 103 104 103 99 94 92 92
214 211 222 215 210 193 152 135 134 137 137 146 148 143 153 155 146 147 137 128 136 136 133 130 129 124 121 118 116 114 111 110 109 105 101 97 93 89
202 196 198 184 193 190 176 142 133 129 140 147 146 152 154 159 155 162 147 155 150 147 141 144 144 143 141 138 136 132 126 123 122 121 117 112 106 101
185 168 157 126 114 110 153 138 144 147 154 156 156 149 155 165 180 187 171 168 163 155 151 160 157 155 160 165 159 150 146 146 145 144 144 138 132 128
187 168 147 132 125 120 115 110 118 157 166 171 167 169 171 175 186 186 171 174 182 176 167 188 173 171 170 164 162 163 166 167 168 168 166 163 159 154
201 198 199 158 134 133 133 136 132 144 154 168 175 186 176 178 177 189 184 185 191 178 177 208 175 165 168 163 168 175 179 182 184 186 187 187 186 184
200 190 174 165 179 149 149 148 157 173 182 183 172 169 166 166 178 189 190 174 175 185 168 200 195 178 173 173 182 184 187 192 197 201 203 204 205 206
201 202 189 176 166 167 168 167 173 165 148 150 149 152 150 159 170 170 187 188 203 193 173 188 202 176 175 173 189 193 196 200 206 211 215 218 220 218
196 196 193 178 168 174 180 179 190 186 170 164 167 176 180 181 185 190 200 209 219 203 176 180 202 187 196 183 180 193 206 212 214 216 217 219 220 220
201 191 188 172 171 177 184 190 195 184 198 201 200 190 185 182 186 198 206 211 218 226 168 171 207 216 198 184 187 194 198 204 209 218 221 222 221 214
214 186 169 163 161 173 191 206 198 196 215 216 211 191 183 181 184 188 192 196 192 202 198 173 205 205 211 224 223 197 199 203 202 203 206 215 225 228
198 153 163 171 171 187 207 212 208 220 220 216 207 197 183 179 173 174 182 186 202 239 227 196 196 212 215 230 234 215 204 205 202 198 194 196 205 215
190 187 178 185 201 206 205 210 218 222 216 212 202 196 181 179 183 182 190 191 202 221 223 203 196 200 231 247 246 240 217 199 194 193 188 196 202 205
170 191 198 198 204 206 207 212 212 207 214 215 210 204 201 197 190 185 189 191 198 204 198 196 207 216 225 242 257 251 229 231 206 192 193 210 220 211
170 208 212 210 213 211 206 204 205 209 208 206 214 211 210 206 195 190 191 197 200 200 194 186 177 187 237 263 239 237 238 236 231 208 205 216 231 224
187 220 225 226 223 217 213 210 209 204 199 201 210 216 215 211 201 201 200 198 202 204 197 186 185 194 222 248 250 226 225 228 220 225 231 229 234 221
214 227 229 227 224 221 220 219 212 202 205 210 213 217 217 216 211 208 203 203 204 204 200 194 200 208 221 234 238 233 218 214 218 227 241 241 235 184
223 231 232 227 226 219 211 205 207 210 214 213 212 215 216 218 218 214 209 208 209 209 211 214 216 212 214 212 246 242 220 215 217 213 221 234 244 235
231 232 227 222 216 216 209 208 217 218 215 216 216 216 216 217 219 216 217 219 214 215 220 218 196 196 207 215 230 233 230 223 229 232 236 231 219 228
240 243 235 228 218 211 207 213 223 227 218 217 218 220 221 221 224 216 220 232 223 221 215 212 208 207 212 216 229 232 232 228 217 218 248 243 238 240
Height
1537 1537 1538 1538 1539 1539 1540 1540 1541 1541 1542 1542 1542 1542 1542 1542 1542 1541 1541 1541 1541 1541 1540 1540 1539 1538 1537 1536 1536 1535 1535 1535 1535 1536 1537 1537 1538 1538
1535 1536 1536 1536 1537 1537 1538 1538 1539 1539 1539 1540 1540 1540 1541 1541 1541 1540 1540 1540 1540 1540 1540 1539 1539 1538 1537 1536 1535 1535 1534 1534 1534 1535 1535 1536 1536 1537
1534 1534 1534 1535 1535 1535 1536 1536 1537 1537 1537 1538 1539 1540 1540 1540 1540 1540 1540 1540 1540 1540 1539 1539 1538 1537 1537 1536 1535 1535 1534 1534 1534 1534 1534 1535 1535 1535
1532 1532 1533 1533 1533 1534 1534 1534 1535 1536 1536 1536 1537 1538 1539 1539 1539 1540 1540 1540 1539 1539 1539 1538 1538 1537 1536 1536 1535 1534 1534 1533 1533 1533 1533 1534 1534 1534
1531 1531 1531 1531 1532 1532 1533 1533 1533 1534 1534 1535 1535 1536 1537 1538 1538 1539 1539 1539 1539 1539 1538 1538 1537 1537 1536 1536 1535 1534 1534 1533 1533 1533 1533 1533 1533 1533
1529 1529 1530 1530 1530 1531 1531 1531 1532 1532 1533 1534 1534 1535 1535 1536 1537 1537 1538 1538 1538 1538 1537 1537 1536 1536 1536 1535 1535 1534 1533 1533 1532 1532 1532 1532 1532 1532
1527 1528 1528 1528 1528 1529 1530 1530 1530 1531 1532 1532 1533 1533 1533 1534 1534 1535 1536 1536 1537 1537 1536 1536 1535 1535 1535 1534 1534 1533 1532 1532 1532 1531 1531 1531 1531 1531
1525 1526 1526 1526 1526 1527 1527 1528 1529 1529 1530 1530 1531 1531 1531 1532 1533 1533 1534 1534 1535 1535 1535 1534 1534 1534 1534 1533 1533 1532 1532 1531 1531 1531 1531 1531 1531 1530
1523 1523 1524 1524 1525 1525 1525 1525 1526 1527 1528 1528 1528 1529 1529 1530 1530 1531 1532 1532 1532 1533 1533 1533 1533 1532 1532 1532 1532 1532 1531 1531 1530 1530 1530 1530 1530 1530
1520 1520 1521 1521 1522 1522 1523 1523 1523 1524 1525 1526 1526 1526 1527 1527 1528 1529 1530 1530 1531 1531 1531 1531 1531 1531 1531 1531 1531 1531 1530 1530 1530 1529 1529 1529 1529 1529
1517 1518 1518 1518 1519 1520 1520 1520 1520 1521 1522 1523 1523 1524 1525 1525 1526 1527 1527 1528 1529 1529 1529 1529 1530 1530 1529 1529 1529 1529 1529 1529 1528 1528 1528 1527 1527 1527
1514 1515 1515 1516 1516 1517 1518 1518 1518 1518 1519 1520 1521 1521 1522 1522 1523 1524 1525 1526 1526 1527 1526 1527 1527 1528 1528 1527 1527 1527 1527 1527 1527 1526 1526 1525 1525 1525
1510 1510 1511 1512 1513 1514 1515 1515 1515 1516 1517 1518 1518 1518 1519 1520 1520 1521 1522 1523 1523 1523 1524 1524 1525 1525 1526 1525 1525 1525 1525 1524 1524 1524 1523 1523 1523 1522
1506 1507 1508 1509 1510 1511 1512 1513 1513 1514 1514 1515 1516 1516 1516 1517 1517 1518 1519 1520 1520 1521 1522 1522 1522 1522 1522 1522 1522 1522 1521 1521 1521 1521 1521 1521 1520 1520
1502 1504 1505 1506 1507 1508 1508 1509 1510 1511 1511 1512 1513 1514 1514 1515 1515 1516 1516 1517 1517 1518 1518 1519 1519 1519 1519 1519 1519 1519 1519 1518 1518 1518 1518 1518 1517 1517
1499 1500 1502 1503 1503 1504 1505 1505 1506 1507 1508 1508 1509 1511 1512 1512 1512 1513 1513 1514 1514 1515 1515 1515 1515 1516 1516 1516 1516 1516 1516 1516 1515 1515 1515 1515 1514 1514
1496 1497 1498 1499 1499 1500 1500 1501 1502 1503 1504 1505 1506 1507 1508 1509 1509 1509 1510 1511 1511 1511 1511 1512 1512 1513 1513 1514 1513 1513 1513 1513 1513 1512 1512 1512 1511 1511
1493 1493 1494 1495 1496 1496 1497 1497 1498 1499 1500 1501 1502 1503 1504 1505 1505 1506 1507 1507 1507 1508 1509 1509 1509 1510 1510 1510 1510 1509 1509 1509 1510 1510 1509 1509 1508 1508
1489 1489 1490 1491 1492 1493 1493 1494 1494 1495 1496 1497 1498 1499 1500 1501 1501 1502 1502 1503 1504 1504 1505 1506 1506 1506 1506 1506 1505 1506 1506 1506 1506 1506 1505 1505 1504 1504
1484 1485 1485 1486 1487 1489 1489 1490 1491 1492 1492 1493 1494 1495 1496 1497 1497 1497 1498 1499 1499 1500 1501 1501 1502 1501 1501 1502 1502 1502 1503 1502 1502 1502 1502 1501 1501 1501
1480 1480 1481 1481 1483 1485 1485 1486 1487 1487 1488 1489 1490 1490 1491 1492 1493 1493 1494 1494 1495 1496 1496 1496 1497 1498 1498 1499 1499 1498 1499 1499 1499 1498 1498 1497 1497 1497
1475 1476 1477 1477 1478 1480 1481 1481 1482 1483 1484 1485 1485 1486 1487 1487 1488 1489 1490 1490 1491 1491 1492 1492 1493 1494 1494 1494 1493 1493 1494 1495 1495 1494 1494 1494 1493 1492
1471 1472 1473 1473 1474 1475 1476 1477 1478 1478 1479 1479 1480 1481 1482 1483 1483 1484 1485 1486 1486 1487 1488 1488 1489 1489 1489 1490 1490 1490 1490 1490 1490 1490 1490 1490 1490 1489